A/2019 G2

Japanese version
Home page
Updated on May 20, 2019

---------------------------------------------------------------------

* Profile

Discovery Date April 2, 2019
Magnitude 21.3 mag
Discoverer Pan-STARRS 1 telescope (Haleakala)

* Orbital Elements

Epoch 2019 Dec. 23.0 TT = JDT 2458840.5
T 2019 Dec.  9.92152 TT                                 MPCW
q   2.2930372            (2000.0)            P               Q
z  +0.0009584      Peri.   82.58790     -0.55111206     +0.81746956
 +/-0.0008453      Node   208.14764     +0.55421783     +0.50856416
e   0.9978023      Incl.  159.21704     +0.62379331     +0.27038123
From 49 observations 2019 Apr. 2-May 6, mean residual 0".5.

* Magnitudes Graph

        H = 16.5  G = 0.15

---------------------------------------------------------------------

The orbital elements are published on M.P.E.C. 2019-J142.
The magnitudes graphs are made with Comet for Windows.

---------------------------------------------------------------------

Copyright(C) Seiichi Yoshida (comet@aerith.net). All rights reserved.